Time,TemperatureF,DewpointF,PressureIn,WindDirection,WindDirectionDegrees,WindSpeedMPH,WindSpeedGustMPH,Humidity,HourlyPrecipIn,Conditions,Clouds,dailyrainin,SolarRadiationWatts/m^2,SoftwareType,DateUTC
2013-03-17 01:06:00,57.8,13.0,29.67,NW,315,0.0,3.0,17,0.00,,,0.00,0,weatherlink.com 1.10,2013-03-17 07:06:00,
2013-03-17 01:36:00,56.9,14.0,29.67,NW,315,0.0,0.0,18,0.00,,,0.00,0,weatherlink.com 1.10,2013-03-17 07:36:00,
2013-03-17 01:51:00,56.9,15.0,29.67,NW,315,2.0,3.0,19,0.00,,,0.00,0,weatherlink.com 1.10,2013-03-17 07:51:00,
2013-03-17 02:06:00,55.7,14.0,29.68,NW,315,2.0,3.0,19,0.00,,,0.00,0,weatherlink.com 1.10,2013-03-17 08:06:00,
2013-03-17 02:21:00,56.5,14.0,29.68,NW,315,3.0,4.0,19,0.00,,,0.00,0,weatherlink.com 1.10,2013-03-17 08:21:00,
2013-03-17 02:36:00,55.2,15.0,29.68,NNW,327,3.0,5.0,20,0.00,,,0.00,0,weatherlink.com 1.10,2013-03-17 08:36:00,
2013-03-17 02:51:00,56.1,16.0,29.68,NNW,327,0.0,2.0,21,0.00,,,0.00,0,weatherlink.com 1.10,2013-03-17 08:51:00,
2013-03-17 03:06:00,58.1,17.0,29.68,NNW,327,4.0,4.0,20,0.00,,,0.00,0,weatherlink.com 1.10,2013-03-17 09:06:00,
2013-03-17 03:21:00,59.3,17.0,29.68,NNW,327,2.0,6.0,19,0.00,,,0.00,0,weatherlink.com 1.10,2013-03-17 09:21:00,
2013-03-17 03:36:00,58.7,18.0,29.68,NNW,327,0.0,3.0,20,0.00,,,0.00,0,weatherlink.com 1.10,2013-03-17 09:36:00,
2013-03-17 03:51:00,58.1,17.0,29.68,NNW,327,0.0,2.0,20,0.00,,,0.00,0,weatherlink.com 1.10,2013-03-17 09:51:00,
2013-03-17 04:06:00,56.5,17.0,29.68,NW,311,4.0,8.0,21,0.00,,,0.00,0,weatherlink.com 1.10,2013-03-17 10:06:00,
2013-03-17 04:21:00,55.0,17.0,29.68,North,355,7.0,7.0,22,0.00,,,0.00,0,weatherlink.com 1.10,2013-03-17 10:21:00,
2013-03-17 04:36:00,56.4,17.0,29.68,North,355,4.0,7.0,21,0.00,,,0.00,0,weatherlink.com 1.10,2013-03-17 10:36:00,
2013-03-17 04:51:00,57.8,17.0,29.68,North,355,4.0,8.0,20,0.00,,,0.00,0,weatherlink.com 1.10,2013-03-17 10:51:00,
2013-03-17 05:06:00,54.0,16.0,29.68,North,5,7.0,7.0,22,0.00,,,0.00,0,weatherlink.com 1.10,2013-03-17 11:06:00,
2013-03-17 05:21:00,54.4,19.0,29.69,North,355,6.0,8.0,25,0.00,,,0.00,0,weatherlink.com 1.10,2013-03-17 11:21:00,
2013-03-17 05:36:00,55.0,20.0,29.69,North,349,6.0,7.0,25,0.00,,,0.00,0,weatherlink.com 1.10,2013-03-17 11:36:00,
2013-03-17 05:51:00,54.7,19.0,29.69,North,350,5.0,7.0,25,0.00,,,0.00,0,weatherlink.com 1.10,2013-03-17 11:51:00,
2013-03-17 06:06:00,53.2,20.0,29.70,North,350,3.0,6.0,27,0.00,,,0.00,0,weatherlink.com 1.10,2013-03-17 12:06:00,
2013-03-17 06:21:00,51.5,21.0,29.69,North,350,1.0,7.0,30,0.00,,,0.00,0,weatherlink.com 1.10,2013-03-17 12:21:00,
2013-03-17 06:37:00,50.5,21.0,29.70,North,350,2.0,5.0,31,0.00,,,0.00,0,weatherlink.com 1.10,2013-03-17 12:37:00,
2013-03-17 06:52:00,50.1,21.0,29.70,North,350,0.0,4.0,32,0.00,,,0.00,0,weatherlink.com 1.10,2013-03-17 12:52:00,
2013-03-17 07:08:00,50.9,23.0,29.70,North,350,0.0,0.0,33,0.00,,,0.00,0,weatherlink.com 1.10,2013-03-17 13:08:00,
2013-03-17 07:22:00,51.9,22.0,29.70,North,350,1.0,2.0,31,0.00,,,0.00,9,weatherlink.com 1.10,2013-03-17 13:22:00,
2013-03-17 07:37:00,52.2,22.0,29.71,North,5,2.0,3.0,31,0.00,,,0.00,18,weatherlink.com 1.10,2013-03-17 13:37:00,
2013-03-17 07:52:00,52.7,22.0,29.71,NNE,13,2.0,4.0,30,0.00,,,0.00,62,weatherlink.com 1.10,2013-03-17 13:52:00,
2013-03-17 08:07:00,55.0,23.0,29.71,NNE,17,1.0,4.0,29,0.00,,,0.00,118,weatherlink.com 1.10,2013-03-17 14:07:00,
2013-03-17 08:22:00,58.6,23.0,29.72,NNE,23,0.0,4.0,25,0.00,,,0.00,181,weatherlink.com 1.10,2013-03-17 14:22:00,
2013-03-17 08:37:00,61.1,22.0,29.72,NNE,23,0.0,1.0,22,0.00,,,0.00,236,weatherlink.com 1.10,2013-03-17 14:37:00,
2013-03-17 08:52:00,61.6,21.0,29.73,NNW,328,4.0,5.0,21,0.00,,,0.00,290,weatherlink.com 1.10,2013-03-17 14:52:00,
2013-03-17 09:07:00,61.0,23.0,29.73,WNW,290,4.0,8.0,23,0.00,,,0.00,343,weatherlink.com 1.10,2013-03-17 15:07:00,
2013-03-17 09:22:00,60.6,22.0,29.74,WNW,290,1.0,6.0,23,0.00,,,0.00,394,weatherlink.com 1.10,2013-03-17 15:22:00,
2013-03-17 09:37:00,61.5,23.0,29.74,WNW,290,4.0,5.0,23,0.00,,,0.00,445,weatherlink.com 1.10,2013-03-17 15:37:00,
2013-03-17 09:52:00,61.8,23.0,29.75,WSW,257,3.0,8.0,23,0.00,,,0.00,496,weatherlink.com 1.10,2013-03-17 15:52:00,
2013-03-17 10:07:00,62.2,24.0,29.75,WSW,238,1.0,8.0,23,0.00,,,0.00,541,weatherlink.com 1.10,2013-03-17 16:07:00,
2013-03-17 10:22:00,62.3,23.0,29.75,SW,226,2.0,8.0,22,0.00,,,0.00,587,weatherlink.com 1.10,2013-03-17 16:22:00,
2013-03-17 10:37:00,63.8,24.0,29.74,SW,222,2.0,7.0,22,0.00,,,0.00,628,weatherlink.com 1.10,2013-03-17 16:37:00,
2013-03-17 10:53:00,63.7,24.0,29.73,West,261,3.0,10.0,22,0.00,,,0.00,668,weatherlink.com 1.10,2013-03-17 16:53:00,
2013-03-17 11:08:00,64.8,24.0,29.73,SSW,212,4.0,8.0,21,0.00,,,0.00,705,weatherlink.com 1.10,2013-03-17 17:08:00,
2013-03-17 11:23:00,65.7,25.0,29.72,SSW,212,4.0,8.0,21,0.00,,,0.00,733,weatherlink.com 1.10,2013-03-17 17:23:00,
2013-03-17 11:38:00,68.2,24.0,29.71,SW,217,13.0,21.0,19,0.00,,,0.00,763,weatherlink.com 1.10,2013-03-17 17:38:00,
2013-03-17 11:53:00,69.5,24.0,29.71,SW,222,7.0,20.0,18,0.00,,,0.00,788,weatherlink.com 1.10,2013-03-17 17:53:00,
2013-03-17 12:08:00,69.8,24.0,29.70,SW,225,17.0,22.0,18,0.00,,,0.00,809,weatherlink.com 1.10,2013-03-17 18:08:00,
2013-03-17 12:23:00,70.1,23.0,29.70,SW,220,13.0,23.0,17,0.00,,,0.00,828,weatherlink.com 1.10,2013-03-17 18:23:00,
2013-03-17 12:38:00,70.0,22.0,29.70,SW,215,18.0,23.0,16,0.00,,,0.00,842,weatherlink.com 1.10,2013-03-17 18:38:00,
2013-03-17 12:53:00,71.1,21.0,29.68,SSW,212,14.0,18.0,15,0.00,,,0.00,854,weatherlink.com 1.10,2013-03-17 18:53:00,
2013-03-17 13:08:00,72.0,20.0,29.68,SSW,193,14.0,26.0,14,0.00,,,0.00,863,weatherlink.com 1.10,2013-03-17 19:08:00,
2013-03-17 13:23:00,72.5,21.0,29.66,SSW,213,16.0,25.0,14,0.00,,,0.00,844,weatherlink.com 1.10,2013-03-17 19:23:00,
2013-03-17 13:38:00,72.7,19.0,29.65,WSW,242,18.0,26.0,13,0.00,,,0.00,849,weatherlink.com 1.10,2013-03-17 19:38:00,
2013-03-17 13:53:00,73.1,19.0,29.64,WSW,238,16.0,31.0,13,0.00,,,0.00,835,weatherlink.com 1.10,2013-03-17 19:53:00,
2013-03-17 14:08:00,74.4,20.0,29.63,SW,223,12.0,28.0,13,0.00,,,0.00,854,weatherlink.com 1.10,2013-03-17 20:08:00,
2013-03-17 14:23:00,73.8,22.0,29.62,SW,236,18.0,32.0,14,0.00,,,0.00,816,weatherlink.com 1.10,2013-03-17 20:23:00,
2013-03-17 14:38:00,74.7,19.0,29.61,SW,219,27.0,37.0,12,0.00,,,0.00,789,weatherlink.com 1.10,2013-03-17 20:38:00,
2013-03-17 14:53:00,74.6,17.0,29.61,WSW,240,22.0,33.0,11,0.00,,,0.00,770,weatherlink.com 1.10,2013-03-17 20:53:00,
2013-03-17 15:08:00,74.2,16.0,29.60,SW,229,18.0,31.0,11,0.00,,,0.00,724,weatherlink.com 1.10,2013-03-17 21:08:00,
2013-03-17 15:23:00,74.9,17.0,29.60,WSW,252,18.0,31.0,11,0.00,,,0.00,696,weatherlink.com 1.10,2013-03-17 21:23:00,
2013-03-17 15:38:00,74.8,19.0,29.60,WSW,238,19.0,33.0,12,0.00,,,0.00,666,weatherlink.com 1.10,2013-03-17 21:38:00,
2013-03-17 15:53:00,74.7,17.0,29.60,SW,225,16.0,36.0,11,0.00,,,0.00,640,weatherlink.com 1.10,2013-03-17 21:53:00,
2013-03-17 16:08:00,74.8,17.0,29.60,SW,230,15.0,37.0,11,0.00,,,0.00,568,weatherlink.com 1.10,2013-03-17 22:08:00,
2013-03-17 16:23:00,74.7,17.0,29.60,WSW,258,16.0,26.0,11,0.00,,,0.00,538,weatherlink.com 1.10,2013-03-17 22:23:00,
2013-03-17 16:38:00,74.4,16.0,29.60,WSW,237,10.0,35.0,11,0.00,,,0.00,497,weatherlink.com 1.10,2013-03-17 22:38:00,
2013-03-17 16:53:00,74.4,18.0,29.61,West,266,14.0,31.0,12,0.00,,,0.00,469,weatherlink.com 1.10,2013-03-17 22:53:00,
2013-03-17 17:08:00,74.2,14.0,29.61,WSW,240,17.0,31.0,10,0.00,,,0.00,83,weatherlink.com 1.10,2013-03-17 23:08:00,
2013-03-17 17:23:00,74.0,16.0,29.60,West,262,14.0,31.0,11,0.00,,,0.00,339,weatherlink.com 1.10,2013-03-17 23:23:00,
2013-03-17 17:38:00,73.7,14.0,29.61,WSW,254,21.0,34.0,10,0.00,,,0.00,278,weatherlink.com 1.10,2013-03-17 23:38:00,
2013-03-17 17:53:00,73.5,16.0,29.61,WSW,244,16.0,29.0,11,0.00,,,0.00,223,weatherlink.com 1.10,2013-03-17 23:53:00,
2013-03-17 18:08:00,73.2,13.0,29.61,WSW,257,25.0,35.0,10,0.00,,,0.00,169,weatherlink.com 1.10,2013-03-18 00:08:00,
2013-03-17 18:23:00,72.7,13.0,29.62,WSW,252,28.0,29.0,10,0.00,,,0.00,111,weatherlink.com 1.10,2013-03-18 00:23:00,
2013-03-17 18:39:00,72.0,12.0,29.62,WSW,238,25.0,29.0,10,0.00,,,0.00,58,weatherlink.com 1.10,2013-03-18 00:39:00,
2013-03-17 18:53:00,71.2,14.0,29.63,SW,236,20.0,27.0,11,0.00,,,0.00,30,weatherlink.com 1.10,2013-03-18 00:53:00,
2013-03-17 19:08:00,70.5,15.0,29.63,WSW,238,12.0,22.0,12,0.00,,,0.00,11,weatherlink.com 1.10,2013-03-18 01:08:00,
2013-03-17 19:24:00,69.7,13.0,29.64,West,271,20.0,20.0,11,0.00,,,0.00,0,weatherlink.com 1.10,2013-03-18 01:24:00,
2013-03-17 19:39:00,69.1,8.0,29.64,West,265,12.0,20.0,9,0.00,,,0.00,0,weatherlink.com 1.10,2013-03-18 01:39:00,
2013-03-17 19:54:00,68.6,10.0,29.65,West,277,9.0,20.0,10,0.00,,,0.00,0,weatherlink.com 1.10,2013-03-18 01:54:00,
2013-03-17 20:09:00,67.9,9.0,29.66,WSW,255,8.0,19.0,10,0.00,,,0.00,0,weatherlink.com 1.10,2013-03-18 02:09:00,
2013-03-17 20:24:00,67.5,9.0,29.67,West,263,11.0,18.0,10,0.00,,,0.00,0,weatherlink.com 1.10,2013-03-18 02:24:00,
2013-03-17 20:39:00,66.7,8.0,29.68,West,265,6.0,14.0,10,0.00,,,0.00,0,weatherlink.com 1.10,2013-03-18 02:39:00,
2013-03-17 20:54:00,65.8,8.0,29.68,West,270,8.0,12.0,10,0.00,,,0.00,0,weatherlink.com 1.10,2013-03-18 02:54:00,
2013-03-17 21:09:00,64.7,9.0,29.69,WNW,282,2.0,9.0,11,0.00,,,0.00,0,weatherlink.com 1.10,2013-03-18 03:09:00,
2013-03-17 21:24:00,63.1,9.0,29.70,WNW,282,1.0,5.0,12,0.00,,,0.00,0,weatherlink.com 1.10,2013-03-18 03:24:00,
2013-03-17 21:39:00,61.0,10.0,29.71,WNW,282,0.0,2.0,13,0.00,,,0.00,0,weatherlink.com 1.10,2013-03-18 03:39:00,
2013-03-17 21:54:00,57.7,9.0,29.71,WNW,282,2.0,4.0,14,0.00,,,0.00,0,weatherlink.com 1.10,2013-03-18 03:54:00,
2013-03-17 22:09:00,57.7,10.0,29.72,WNW,282,0.0,2.0,15,0.00,,,0.00,0,weatherlink.com 1.10,2013-03-18 04:09:00,
2013-03-17 22:24:00,59.1,10.0,29.72,WNW,282,0.0,1.0,14,0.00,,,0.00,0,weatherlink.com 1.10,2013-03-18 04:24:00,
2013-03-17 22:39:00,61.4,10.0,29.73,West,265,1.0,8.0,13,0.00,,,0.00,0,weatherlink.com 1.10,2013-03-18 04:39:00,
2013-03-17 22:54:00,61.3,10.0,29.74,WSW,246,3.0,8.0,13,0.00,,,0.00,0,weatherlink.com 1.10,2013-03-18 04:54:00,
2013-03-17 23:09:00,61.4,10.0,29.74,WSW,257,6.0,10.0,13,0.00,,,0.00,0,weatherlink.com 1.10,2013-03-18 05:09:00,
2013-03-17 23:24:00,60.9,11.0,29.75,SW,236,0.0,8.0,14,0.00,,,0.00,0,weatherlink.com 1.10,2013-03-18 05:24:00,
2013-03-17 23:39:00,57.3,10.0,29.75,West,261,0.0,5.0,15,0.00,,,0.00,0,weatherlink.com 1.10,2013-03-18 05:39:00,
2013-03-17 23:54:00,56.9,11.0,29.76,WNW,288,1.0,5.0,16,0.00,,,0.00,0,weatherlink.com 1.10,2013-03-18 05:54:00,